This is the latest recevied weather packets stored in our database for station/object W3BRL. If no packets are shown the sender has not sent any weather packets the latest 10 day(s).
| Time | Temp. | Humidity | Pressure | Rain* | Wind** | Luminosity | Snow |
|---|---|---|---|---|---|---|---|
| 1777149130 | 13.89° C | 86% | 1007.8 hPa | 0 mm | - | 286 W/m² | - |
| 1777148830 | 13.89° C | 88% | 1007.7 hPa | 0 mm | - | 354 W/m² | - |
| 1777148527 | 13.33° C | 88% | 1007.7 hPa | 0 mm | - | 267 W/m² | - |
| 1777148223 | 13.33° C | 89% | 1007.9 hPa | 0 mm | - | 268 W/m² | - |
| 1777147919 | 13.33° C | 90% | 1007.7 hPa | 0 mm | - | 183 W/m² | - |
| 1777147616 | 13.33° C | 91% | 1007.7 hPa | 0 mm | - | 170 W/m² | - |
| 1777147311 | 13.33° C | 92% | 1007.7 hPa | 0 mm | - | 106 W/m² | - |
| 1777147006 | 13.33° C | 92% | 1007.6 hPa | 0 mm | - | 104 W/m² | - |
| 1777146703 | 13.33° C | 93% | 1007.6 hPa | 0 mm | - | 113 W/m² | - |
| 1777146403 | 13.33° C | 93% | 1007.4 hPa | 0 mm | - | 85 W/m² | - |
| 1777146101 | 13.89° C | 93% | 1007.5 hPa | 0 mm | - | 100 W/m² | - |
| 1777145796 | 13.89° C | 93% | 1007.4 hPa | 0 mm | - | 90 W/m² | - |
| 1777145492 | 14.44° C | 93% | 1007.4 hPa | 0 mm | - | 93 W/m² | - |
| 1777145187 | 14.44° C | 93% | 1007.5 hPa | 0 mm | - | 105 W/m² | - |
| 1777144883 | 14.44° C | 93% | 1006.9 hPa | 0 mm | - | 112 W/m² | - |
| 1777144582 | 15° C | 93% | 1006.9 hPa | 0 mm | - | 135 W/m² | - |
| 1777144278 | 15° C | 93% | 1007.1 hPa | 0 mm | - | 198 W/m² | - |
| 1777143974 | 15° C | 93% | 1007.2 hPa | 0 mm | - | 174 W/m² | - |
| 1777143670 | 15.56° C | 91% | 1006.9 hPa | 3.05 mm | - | 132 W/m² | - |
| 1777143367 | 16.11° C | 90% | 1006.5 hPa | 3.05 mm | - | 122 W/m² | - |
| 1777143063 | 17.22° C | 86% | 1006.6 hPa | 1.78 mm | - | 237 W/m² | - |
| 1777142758 | 18.33° C | 81% | 1006.4 hPa | 0 mm | - | 198 W/m² | - |
| 1777142455 | 18.33° C | 83% | 1006.3 hPa | 0 mm | - | 389 W/m² | - |
| 1777142155 | 18.33° C | 84% | 1006.1 hPa | 0 mm | - | 290 W/m² | - |
| 1777141851 | 18.33° C | 83% | 1006.1 hPa | 0 mm | - | 250 W/m² | - |
* Rain latest hour (hover to see other rain measurements)
** Current wind speed in m/s (hover to see current wind gust speed)